Regional Weather Roundup
Issued by NWS

Home | Current Version | Previous Version | Text Only | Print | Product List | Glossary On
Versions: 1 2 3 4 5 6 7 8 9 10 11 12 13 14 15 16 17 18 19 20 21 22 23 24 25 26 27 28 29 30 31 32 33 34 35 36 37 38 39 40 41 42 43 44 45 46 47 48 49 50
478
ASUS45 KPSR 281910
RWRAZ

ARIZONA HOURLY REGIONAL WEATHER ROUNDUP
NATIONAL WEATHER SERVICE PHOENIX AZ
1200 PM MST TUE MAR 28 2017

NOTE: FAIR INDICATES FEW OR NO CLOUDS BELOW 12,000 FEET WITH NO
SIGNIFICANT WEATHER AND/OR OBSTRUCTIONS TO VISIBILITY.

AZZ001>003-036-282000-
NORTHWEST ARIZONA

CITY           SKY/WX    TMP DP  RH WIND       PRES   REMARKS
BULLHEAD CITY  SUNNY     72  25  17 N29G36    29.98F
KINGMAN        SUNNY     61  11  14 N15G26    30.02F
$$

AZZ004>008-015-016-018-282000-
NORTH CENTRAL ARIZONA

CITY           SKY/WX    TMP DP  RH WIND       PRES   REMARKS
GRAND CANYON   MOSUNNY   49  27  42 VRB6      29.99S
WILLIAMS       MOSUNNY   48  28  46 N20       29.99S
PRESCOTT       PTSUNNY   54  30  40 N8        29.97R
FLAGSTAFF      PTSUNNY   42  26  53 VRB6      29.97R
PAYSON         CLOUDY    52  32  46 NE10      29.96S
PAGE           CLOUDY    57  26  30 VRB3      29.93F
$$

AZZ009>014-017-282000-
NORTHEAST ARIZONA

CITY           SKY/WX    TMP DP  RH WIND       PRES   REMARKS
WINSLOW        LGT RAIN  46  40  79 NW9       29.94R
SAINT JOHNS    PTSUNNY   46  35  65 W13       29.89F
WINDOW ROCK    CLOUDY    41  34  76 E9        29.87F
SHOW LOW       PTSUNNY   41  32  70 NE10      29.93F
$$

AZZ023-282000-
GREATER PHOENIX AREA

CITY           SKY/WX    TMP DP  RH WIND       PRES   REMARKS
PHOENIX        MOSUNNY   70  33  25 NW6       29.86S
BUCKEYE        SUNNY     72  32  23 NW13      29.89F
GLENDALE       MOSUNNY   73  34  23 SW5       29.90S
LUKE AFB       SUNNY     73  35  24 VRB5      29.87S
DEER VALLEY    SUNNY     71  32  23 W10G16    29.86S
SCOTTSDALE     SUNNY     70  33  25 MISG      29.88S
MESA-FALCON    SUNNY    N/A N/A N/A W8        29.85F
MESA-GATEWAY   MOSUNNY   66  36  32 N6        29.89S
CHANDLER       MOSUNNY   70  34  26 SW6       29.88S
$$

AZZ027-028-282000-
SOUTHWEST MARICOPA COUNTY AND PINAL COUNTY

CITY           SKY/WX    TMP DP  RH WIND       PRES   REMARKS
CASA GRANDE    NOT AVBL
GILA BEND      SUNNY     72  31  22 W14       29.89F
$$

AZZ503-504-507>509-282000-
SOUTHEAST ARIZONA

CITY           SKY/WX    TMP DP  RH WIND       PRES   REMARKS
TUCSON         MOSUNNY   66  35  31 W12       29.93S
DAVIS-MONTHAN  MOSUNNY   62  35  36 NW9       29.91S
RYAN FIELD     SUNNY     64  36  34 W15G21    29.93S
NOGALES        MOSUNNY   64  25  22 W12G21    29.93R
SIERRA VISTA   CLOUDY    57  27  31 W14G22    29.93F
DOUGLAS        MOSUNNY   61  26  26 NW15G24   29.90F
SAFFORD        MOSUNNY   66  27  23 W16       29.83F
$$

AZZ020-021-025-026-031-282000-
SOUTHWEST ARIZONA

CITY           SKY/WX    TMP DP  RH WIND       PRES   REMARKS
YUMA           SUNNY     76  23  14 N21G26    29.95F
$$

CAZ031-033-041-043-047-048-061-282000-
SOUTHERN CALIFORNIA

CITY           SKY/WX    TMP DP  RH WIND       PRES   REMARKS
DOWNTOWN L.A.  SUNNY     74  34  23 CALM      30.02F
L.A. AIRPORT   MOSUNNY   71  43  36 SW10      30.03F
SAN DIEGO      MOSUNNY   67  49  52 NW10      30.04F
BURBANK        SUNNY     71  31  22 SE7       30.03S
ONTARIO        MOSUNNY   71  25  17 W8        30.03S
RIVERSIDE      SUNNY     73  21  14 N15G28    30.03S
PALM SPRINGS   SUNNY     80  16   9 NE16      30.01F
EL CENTRO NAS  MOSUNNY   77  16  10 NW23G29   30.01F
IMPERIAL       SUNNY     76  28  17 NW13      29.98S
BLYTHE         SUNNY     76  23  14 N20G30    29.97F
NEEDLES        SUNNY     74  23  15 N26G37    30.00R
$$

NVZ020-UTZ003-282000-
SOUTHERN NEVADA-UTAH

CITY           SKY/WX    TMP DP  RH WIND       PRES   REMARKS
LAS VEGAS      SUNNY     66  17  15 N17G23    30.08S
SALT LAKE CITY MOSUNNY   49  34  56 NW16      30.13F
$$

NMZ009-TXZ055-282000-
NEW MEXICO-WEST TEXAS

CITY           SKY/WX    TMP DP  RH WIND       PRES   REMARKS
ALBUQUERQUE    PTSUNNY   53  35  50 NW7       29.79F
EL PASO        MOSUNNY   63  30  28 W32G43    29.82R
$$


........................KEY........................
SKY/WX - SKY CONDITION/WEATHER
TMP    - TEMPERATURE IN FAHRENHEIT
DP     - DEW POINT IN FAHRENHEIT
RH     - RELATIVE HUMIDITY IN PERCENT
WIND   - DIRECTION AND SPEED IN MILES PER HOUR (MPH)
VRB    - VARIABLE WIND DIRECTION
PRES   - MEAN SEA LEVEL PRESSURE IN INCHES OF MERCURY
         F - FALLING PRESSURE   R - RISING PRESSURE
         S - STEADY PRESSURE
VSB    - VISIBILITY IN MILES
HX     - HEAT INDEX IN FAHRENHEIT
WCI    - WIND CHILL INDEX IN FAHRENHEIT
TC     - TEMPERATURE IN CELSIUS WHICH IS ALSO KNOWN AS
         TEMPERATURE IN CENTIGRADE
AFB    - AIR FORCE BASE
         LUKE AFB IS LUKE AIR FORCE BASE
         DAVIS-MONTHAN IS DAVIS-MONTHAN AIR FORCE BASE
NAS    - NAVAL AIR STATION
         EL CENTRO NAS IS EL CENTRO NAVAL AIR STATION
N/A    - NOT AVAILABLE





USA.gov is the U.S. government's official web portal to all federal, state and local government web resources and services.